P/2007 V2 (Hill)

Epoch 2007 Aug. 8.0 TT = JDT 2454320.5  

T 2007 July 30.89565 TT                                 Nakano

q   2.7749938            (2000.0)            P               Q

n   0.12015392     Peri.  278.52353     +0.94802560     -0.31534665

a   4.0673427      Node    99.86640     +0.30626388     +0.86810757

e   0.3177379      Incl.    2.47082     +0.08631278     +0.38333502

P   8.20 (+/- 0.07 day)

From 64 observations 2007 Oct. 14-2008 Feb. 10, mean residual 0".56.

Residuals in seconds of arc 

2007/                     071110 673  1.8+  0.2+    071114 704  0.8-  0.4+  

071014 691  0.7+  0.2-    071110 G96  0.7-  0.3+    071114 704  0.2-  0.6+  

071014 691  0.2+  0.2-    071110 G96  0.1-  0.3+    071114 704  1.5-  0.1-  

071014 691  0.8-  0.3+    071110 673  0.5-  0.3+    071116 850  0.1+  0.6-  

071109 G96  0.6+  0.3-    071110 G96  0.5+  0.3+    071116 850  0.1-  0.6-  

071109 G96  0.0   0.2+    071110 G96  0.6-  0.2+    071116 204  0.6+  0.2+  

071109 G96  0.5+  0.1+    071110 673  0.9+  0.8+    071117 204  0.8-  0.5+  

071109 G96  0.4+  0.1-    071110 711  0.1-  0.4+    071118 213  0.2-  0.1-  

071109 G96  0.1-  0.2-    071110 711  0.9+  0.1+    071118 213  0.2-  0.0   

071109 G96  0.1+  0.1-    071110 711  0.2+  0.1-    071118 213  0.1+  0.5+  

071109 G96  0.0   0.2-    071110 474  0.0   0.0     071128 215  0.2+  0.0   

071109 G96  0.6+  0.3-    071110 474  0.0   0.1-    071205 561  0.5+  0.1-  

071109 G96  0.7+  0.4-    071110 474  0.7+  0.3-    071205 561  0.2-  0.0   

071109 235  0.7-  0.6-    071110 213  0.5-  0.2+    071205 561 (0.1+  2.5+) 

071109 235  0.8+  0.1-    071110 213  0.8-  0.5+    071208 J47  0.4+  0.4+  

071109 473  0.3-  1.9-    071110 213  0.5-  0.5+    071208 J47  0.4+  0.1+  

071109 473 (0.4-  2.8-)   071110 J47 (1.6-  2.5+)   071208 J47  0.1+  0.2-  

071109 147 (2.8-  1.6-)   071110 J47 (2.1-  2.5+)   071230 204  0.9-  0.2+  

071110 147  1.8-  1.5-    071111 J47  0.8-  0.7+    2008/                   

071110 147  1.4-  1.4-    071111 J47  0.8-  0.8+    080210 G96  0.3+  0.1+  

071110 H55  0.4+  0.1+    071111 349  0.2+  0.2-    080210 G96  0.1+  0.3-  

071110 H55  0.3+  0.2+    071111 349  0.7+  0.0     080210 G96  0.0   0.4-  

071110 H55  0.3+  0.1+    071111 349  0.7+  0.0     080210 G96  0.1-  0.0   

071110 673  0.1-  0.1+    071114 704  0.7+  0.7+                            

NAKANO

         **** Don't distribute anyone except personal use only ****

                (C) Copyright 2008 OAA/ComputingSection

write mail from CFAD0::NAKANO on 2008-02-15 03:48:21(JST).

 



    P/2007 V2 (Hill)

T 2007 July 31.35124 TT                                 Nakano

q   2.7727517            (2000.0)            P               Q

n   0.12018063     Peri.  278.57310     +0.94760420     -0.31661557

a   4.0667398      Node    99.89350     +0.30741315     +0.86770693

e   0.3181881      Incl.    2.46891     +0.08685297     +0.38319612

P   8.20 (+/- 1.07 days)

From 53 observations 2007 Oct. 14-Nov. 18.





NAKANO

         **** Don't distribute anyone except personal use only ****

                (C) Copyright 2007 OAA/ComputingSection

write mail from CFAD0::NAKANO on 2007-11-30 09:05:11(JST).

 





◎P/2007 V2の軌道と予報位置



 上尾の門田健一氏より11月11日の観測が報告されました.氏の CCD全光度は,

19.2等でした.なお,周期は,まだ,不確かです.



    P/2007 V2 (Hill)

T 2007 July 30.31227 TT                                 Nakano

q   2.7647963            (2000.0)            P               Q

n   0.12005223     Peri.  278.07809     +0.94959527     -0.31060999

a   4.0696391      Node   100.02561     +0.30187221     +0.86968172

e   0.3206286      Incl.    2.46262     +0.08451030     +0.38363413

P   8.21 (+/- 7.31 days)

From 33 observations 2007 Oct. 14-Nov. 11.

 

Date/        TT  R.A.(2000) Decl.     Delta   r     Daily motion  Mag.  Moon Age

              h    h  m       。  ,                      ,  / PA 。  m1      。

2007 Nov. 10 14  02 37.38  +12 02.6   1.845  2.829    10.3 / 256  18.8  164  .01

          11 14  02 36.69  +12 00.2   1.848  2.831    10.2 / 256  18.9  153  .03

          12 14  02 36.01  +11 57.8   1.851  2.832    10.1 / 257  18.9  141  .06

          13 14  02 35.34  +11 55.4   1.855  2.833    10.0 / 257  18.9  129  .12

          14 14  02 34.68  +11 53.1   1.859  2.834     9.8 / 257  18.9  117  .19

          15 14  02 34.03  +11 50.9   1.864  2.836     9.7 / 257  18.9  105  .27

          16 14  02 33.39  +11 48.8   1.868  2.837     9.5 / 257  18.9   92  .36

          17 14  02 32.76  +11 46.7   1.873  2.838     9.3 / 258  18.9   79  .46

          18 14  02 32.14  +11 44.7   1.878  2.840     9.1 / 258  18.9   66  .57

          19 14  02 31.54  +11 42.8   1.883  2.841     8.9 / 258  18.9   52  .68

          20 14  02 30.95  +11 40.9   1.889  2.842     8.7 / 258  18.9   38  .78

          21 14  02 30.37  +11 39.2   1.895  2.843     8.4 / 259  18.9   24  .87

          22 14  02 29.81  +11 37.5   1.901  2.845     8.2 / 259  18.9   11  .94

          23 14  02 29.26  +11 35.9   1.908  2.846     7.9 / 259  18.9   11  .98

          24 14  02 28.73  +11 34.4   1.914  2.848     7.7 / 260  19.0   24 1.00

          25 14  02 28.21  +11 33.0   1.921  2.849     7.4 / 260  19.0   39  .98

          26 14  02 27.72  +11 31.7   1.928  2.850     7.2 / 260  19.0   54  .94

          27 14  02 27.24  +11 30.5   1.936  2.852     6.9 / 261  19.0   68  .87

          28 14  02 26.77  +11 29.4   1.943  2.853     6.6 / 261  19.0   82  .79

          29 14  02 26.33  +11 28.5   1.951  2.855     6.3 / 262  19.0   96  .70

          30 14  02 25.91  +11 27.6   1.959  2.856     6.0 / 263  19.0  109  .60

     Dec.  1 14  02 25.50  +11 26.8   1.968  2.857     5.7 / 263  19.0  122  .49

           2 14  02 25.12  +11 26.1   1.976  2.859     5.4 / 264  19.0  134  .40

           3 14  02 24.75  +11 25.6   1.985  2.860     5.1 / 265  19.1  146  .31

           4 14  02 24.41  +11 25.1   1.994  2.862     4.8 / 266  19.1  157  .22

           5 14  02 24.08  +11 24.8   2.004  2.863     4.5 / 267  19.1  168  .15

           6 14  02 23.78  +11 24.5   2.013  2.865     4.1 / 268  19.1  172  .09

           7 14  02 23.50  +11 24.4   2.023  2.866     3.8 / 270  19.1  164  .04

           8 14  02 23.24  +11 24.4   2.033  2.868     3.5 / 272  19.1  153  .01

           9 14  02 23.00  +11 24.6   2.043  2.869     3.2 / 274  19.1  141  .00

          10 14  02 22.78  +11 24.8   2.053  2.871     2.9 / 277  19.1  129  .01

NAKANO

         **** Don't distribute anyone except personal use only ****

                (C) Copyright 2007 OAA/ComputingSection

write mail from CFAD0::NAKANO on 2007-11-12 06:53:08(JST).

 



戻ります。